Theta_e
328 326 329 333 336 342 343 344 345 346 347 347 347 348 348 348 349 349 348 348 348 348 347 347 347 347 348 348 348 348 349 350 350 350 350 350 350 350 350 349 348 348 347 347 347 347 347 348 347 347 344 343 341 339 339 340 341 344 346 348 348 348 349 350 351 353 354 354 354 357 357 357 357 356 355 355 353 354 356 356 356 358 356 355 354
323 326 329 334 335 340 341 343 344 344 345 346 346 346 347 347 347 348 348 348 348 347 347 347 347 348 348 348 348 349 348 348 349 349 349 349 350 350 350 349 349 349 349 348 347 347 347 347 347 345 344 343 342 341 341 340 341 342 344 346 347 348 349 350 352 352 353 353 354 355 355 357 357 358 356 355 354 354 356 354 354 356 352 353 354
322 325 328 334 335 338 339 340 341 342 343 342 343 343 344 345 346 346 347 347 347 348 347 347 347 347 347 347 347 347 347 348 347 348 348 348 348 348 349 348 348 349 349 349 349 347 347 347 346 346 344 344 343 343 343 343 344 345 345 346 346 346 347 350 352 352 352 353 353 353 351 352 354 357 356 356 355 353 354 354 353 354 355 355 357
322 324 328 333 336 335 336 337 337 338 338 339 339 340 341 342 343 344 345 346 347 347 347 347 347 347 347 346 346 346 347 347 348 348 348 348 347 347 347 347 348 348 348 349 348 347 347 347 346 346 346 346 346 344 345 346 346 346 347 347 347 347 346 349 352 351 352 352 353 350 354 355 354 356 358 357 354 353 352 353 353 354 356 356 356
320 323 328 332 335 333 333 334 335 335 336 337 337 338 339 340 341 342 343 343 343 343 344 344 344 344 345 345 345 345 346 347 347 348 347 348 348 347 346 346 346 346 346 347 347 347 346 346 346 346 346 350 349 346 346 347 348 347 347 347 347 348 349 351 351 351 351 350 351 351 350 353 357 356 357 355 353 353 352 352 353 355 356 356 356
319 323 327 330 331 332 331 332 333 334 334 335 335 336 337 338 339 339 339 340 341 342 342 343 343 343 343 343 344 344 344 345 346 346 346 346 346 345 345 346 346 346 346 346 346 345 345 345 345 346 346 348 350 350 348 347 347 347 348 348 348 348 350 351 350 350 350 348 347 347 348 352 353 355 357 354 352 352 351 352 356 355 355 355 356
319 322 325 328 329 329 330 330 332 332 333 333 333 334 335 336 336 336 337 338 339 341 341 341 341 341 341 341 342 344 344 343 344 344 344 344 343 344 343 344 344 345 345 346 346 346 345 345 345 345 345 345 349 349 348 346 346 346 347 347 347 347 348 349 350 349 348 348 340 343 348 351 353 353 353 353 351 351 352 353 354 356 355 355 355
319 321 324 325 327 328 328 329 330 331 331 331 332 332 333 333 333 333 334 335 337 337 338 338 338 339 340 340 340 341 341 341 341 340 339 340 341 342 342 342 343 343 344 345 345 346 345 345 345 345 345 344 347 347 347 346 345 346 347 347 348 348 348 350 350 348 347 349 341 342 344 348 349 350 352 353 353 353 352 353 354 355 355 356 353
317 318 321 323 324 325 327 328 329 329 329 330 330 330 331 331 331 331 332 333 334 334 334 334 335 335 336 337 337 337 337 337 337 336 335 336 337 338 339 341 341 342 343 344 345 346 346 345 345 345 345 344 345 345 345 346 346 346 346 347 347 347 350 349 348 345 347 346 342 340 340 344 347 347 348 350 354 354 354 354 354 354 354 353 351
314 316 320 322 324 324 325 325 326 327 328 328 328 328 328 328 328 329 329 330 331 331 330 330 330 331 332 332 332 333 333 333 332 331 332 333 333 334 336 338 338 339 339 340 341 342 344 345 345 346 346 345 345 345 345 345 346 346 346 346 346 346 348 349 347 344 348 348 346 344 342 346 342 344 344 348 350 351 352 348 349 350 351 350 349
310 313 317 319 321 322 324 325 325 325 325 325 326 326 326 325 326 326 326 327 328 328 327 326 327 327 328 328 329 329 329 328 328 327 328 329 330 332 333 334 334 334 335 336 337 339 340 342 343 344 345 345 343 343 344 345 345 345 345 345 346 346 347 347 343 346 345 346 347 347 344 345 347 340 344 349 349 349 350 347 347 349 351 352 352
306 310 315 317 318 320 321 322 323 323 323 324 324 323 324 324 323 323 324 325 325 325 323 323 323 323 324 324 325 325 325 325 324 324 324 326 327 328 330 330 330 330 330 331 333 335 338 338 339 339 340 341 341 343 343 344 344 344 344 345 345 346 346 344 345 343 345 344 345 346 347 346 344 344 349 351 351 350 349 350 351 351 353 353 353
306 307 310 315 316 315 318 320 320 321 321 321 321 321 321 321 321 321 321 322 323 322 321 320 320 320 321 321 321 321 321 321 321 321 322 323 324 325 326 326 326 327 327 328 329 331 333 334 334 334 334 335 335 337 338 340 341 342 343 344 344 346 344 340 342 341 341 343 343 344 346 348 348 349 351 352 352 352 352 353 353 352 352 353 354
304 305 307 309 311 311 313 316 317 318 319 319 319 319 320 319 319 319 320 320 320 319 319 318 317 317 318 318 318 318 318 319 319 319 320 321 322 323 323 323 323 324 324 324 325 327 330 331 331 330 329 329 328 329 332 335 338 339 340 341 341 342 341 339 339 340 341 343 343 345 346 345 346 347 350 351 352 353 353 354 354 353 353 352 354
304 307 306 306 306 308 308 310 313 314 315 316 317 318 317 317 317 317 317 317 317 318 317 316 315 315 315 315 316 316 316 317 316 316 317 318 320 320 321 320 320 321 322 322 322 324 326 327 327 327 326 326 325 325 325 327 331 334 336 337 337 338 336 342 340 340 340 341 342 343 344 345 344 349 349 350 350 351 352 353 354 353 353 352 353
305 305 305 305 305 306 306 306 307 310 312 313 314 314 315 315 315 315 315 314 315 315 314 314 313 313 312 312 313 313 313 314 314 314 315 315 317 317 317 317 317 318 319 319 320 320 322 323 323 323 323 322 322 322 322 323 325 327 329 330 331 332 332 331 340 339 339 338 340 343 344 344 344 347 348 349 349 349 351 353 354 353 352 351 350
304 304 304 304 305 304 304 303 304 305 307 309 310 311 311 312 312 312 312 312 312 312 312 312 311 311 310 309 309 309 310 311 311 312 312 313 314 314 315 315 315 316 316 317 317 318 318 319 319 319 320 319 319 319 319 320 322 323 323 323 324 325 325 325 337 339 337 339 341 342 341 342 341 344 347 348 349 348 348 349 352 353 353 353 350
304 303 302 302 303 303 303 304 304 304 305 306 306 307 309 309 310 310 310 310 309 309 309 309 309 308 307 306 305 306 306 307 307 309 309 310 310 311 312 313 314 315 315 315 316 316 316 317 317 317 317 316 316 315 315 317 318 319 319 320 320 320 321 321 334 336 337 338 340 340 340 338 341 346 346 347 348 348 347 347 348 352 353 354 350
302 301 302 301 301 302 302 303 303 303 303 304 305 303 305 306 307 307 307 308 307 306 306 305 306 306 305 304 304 303 303 304 304 305 306 306 306 307 309 311 311 313 313 313 314 315 315 315 315 315 315 315 314 313 313 314 315 316 317 317 316 316 316 325 335 338 339 339 340 341 341 339 343 344 342 344 344 346 347 347 347 349 352 353 353
301 301 301 302 302 301 302 302 302 302 303 303 304 303 302 303 304 304 305 304 304 305 304 304 303 303 303 303 303 303 304 304 302 303 303 304 303 304 306 307 308 309 311 310 312 313 313 313 314 314 314 313 312 312 312 312 313 314 314 314 314 313 327 332 336 338 338 337 337 340 337 340 343 343 344 344 344 345 346 347 347 348 350 352 352
300 300 300 300 302 301 300 301 301 301 302 302 302 303 302 301 301 301 301 302 302 302 302 302 303 302 302 303 304 303 303 304 303 303 303 302 301 301 303 305 306 306 307 307 308 310 311 311 312 312 312 311 310 310 310 310 311 311 311 312 312 318 323 326 328 330 334 337 338 340 337 341 343 344 345 344 345 345 345 345 346 346 348 350 351
298 298 299 300 300 301 301 300 301 301 301 302 302 302 302 300 302 302 301 301 300 301 301 301 302 302 303 302 302 301 302 302 301 301 302 301 302 300 302 303 305 304 305 306 306 307 308 309 309 309 309 309 308 310 310 311 311 310 311 311 316 315 318 319 321 324 328 332 334 336 336 340 340 341 344 344 344 344 345 345 345 346 347 349 350
298 298 298 298 300 299 300 299 300 301 301 301 302 302 301 301 301 301 301 300 301 300 301 300 301 301 302 302 301 300 301 302 300 300 300 301 301 300 301 302 302 302 303 304 304 305 306 307 307 307 307 307 308 309 308 309 310 309 310 312 312 313 315 315 317 320 324 328 331 331 334 336 337 340 342 344 344 343 344 345 345 345 346 348 350
297 298 298 299 299 299 300 300 300 301 301 301 302 301 301 301 301 301 301 300 301 301 301 301 301 301 301 300 300 300 301 301 303 303 303 301 302 302 301 301 301 302 301 303 303 303 304 305 305 305 306 309 308 307 307 307 308 308 309 309 309 311 312 313 313 316 319 324 328 329 332 334 336 338 341 343 342 342 343 344 344 345 345 347 349
298 299 298 297 298 299 299 300 300 301 301 300 301 300 300 300 300 300 301 300 300 300 300 301 301 301 301 300 301 300 301 300 301 301 301 301 302 301 301 301 301 302 301 302 302 303 303 304 304 305 306 306 306 306 306 306 306 307 307 307 309 310 310 310 312 313 315 317 322 325 329 332 333 337 340 342 343 342 342 343 344 344 345 346 346
298 296 297 296 298 298 299 299 299 300 301 300 300 298 300 300 300 300 300 300 300 300 300 300 300 300 300 300 299 300 300 300 300 300 300 300 300 299 299 300 300 301 300 301 301 302 302 303 303 303 304 304 305 306 306 305 305 306 306 307 308 308 308 308 309 310 313 313 315 320 325 329 329 332 336 339 341 342 342 342 343 344 344 346 345
297 297 297 297 297 297 299 299 299 299 300 300 299 300 299 299 300 299 300 299 300 300 299 299 299 299 300 299 299 299 299 298 299 299 299 299 298 298 298 299 299 299 299 299 300 301 301 301 302 302 303 304 305 305 305 306 306 306 306 306 307 307 307 307 308 309 310 311 312 315 319 322 324 326 328 334 338 340 342 341 342 343 344 344 346
298 297 297 297 296 297 297 298 298 299 299 299 299 299 299 299 299 298 299 297 299 298 298 298 299 298 299 298 299 299 298 297 298 297 298 298 298 298 298 298 298 298 298 299 299 299 300 300 301 302 302 303 303 304 305 305 305 305 305 306 306 306 307 307 307 308 309 309 310 311 314 317 321 322 324 327 331 336 340 341 342 343 343 344 344
297 297 297 296 297 297 296 296 297 297 298 299 298 298 298 298 299 298 298 297 298 298 298 298 298 298 298 298 297 298 297 297 297 296 297 297 297 297 297 296 297 297 297 297 297 298 298 299 300 300 301 302 303 303 303 304 304 304 304 304 305 305 306 306 307 307 308 309 309 309 311 314 316 316 319 322 326 330 336 340 341 342 343 344 344
297 296 297 296 297 297 296 296 297 297 298 297 298 298 298 298 298 298 297 297 297 297 298 297 297 297 296 297 297 297 296 295 295 295 296 295 296 296 295 295 296 296 296 296 296 297 297 298 298 299 300 301 301 302 303 302 303 303 304 303 304 304 304 305 305 306 307 307 308 307 309 311 314 314 315 318 323 326 330 336 340 341 342 343 344
297 296 296 297 296 296 296 296 297 298 299 298 298 296 297 297 297 298 298 297 297 297 297 297 297 296 296 296 297 296 296 296 295 295 295 295 294 294 294 295 295 295 295 295 295 296 297 297 297 298 298 299 300 301 302 301 302 302 303 303 303 303 303 304 305 305 305 307 307 307 308 309 311 312 313 315 317 320 323 327 331 337 341 342 342
296 296 296 297 296 296 296 296 296 298 297 297 297 297 297 297 297 297 297 297 297 297 296 296 296 296 296 296 296 296 295 295 294 294 293 294 293 293 294 293 294 294 294 294 294 295 296 296 297 298 298 299 299 299 300 300 300 301 302 302 302 302 303 304 304 305 305 306 307 307 308 309 309 310 312 313 316 318 321 323 327 331 335 340 342
297 297 297 296 295 296 295 295 296 297 296 296 296 296 296 296 297 297 296 297 296 296 296 296 295 295 295 295 294 294 294 294 294 293 293 293 293 293 292 292 293 292 293 294 294 295 295 296 296 297 297 297 298 298 300 299 299 300 300 301 301 301 302 303 303 304 305 306 306 306 307 307 308 308 309 311 313 315 317 319 323 327 331 333 340
296 297 297 295 295 297 297 296 296 296 296 295 295 296 296 296 296 296 296 296 296 296 295 295 295 295 294 294 294 294 294 294 293 293 293 292 292 292 292 291 292 292 292 293 293 293 294 294 295 295 295 295 296 297 297 297 298 299 299 300 300 301 302 302 303 303 304 305 306 306 306 306 306 307 308 309 311 313 315 317 319 322 325 328 331
297 296 295 295 295 296 296 294 296 297 296 296 296 296 296 296 296 296 296 296 296 295 295 295 295 294 293 294 294 293 293 293 293 292 292 292 291 291 291 291 291 291 291 292 292 292 293 293 294 293 294 295 295 295 295 295 296 296 298 299 299 300 300 301 302 303 304 305 304 305 306 306 306 307 308 308 306 308 312 317 318 319 322 326 329
296 295 295 295 294 295 295 295 295 295 296 296 296 295 295 295 296 296 295 296 295 295 294 294 293 294 293 293 293 292 292 292 292 292 291 291 290 290 290 290 290 290 291 291 291 291 291 292 293 293 293 293 293 294 294 294 295 295 296 297 298 299 299 300 300 301 303 303 303 304 305 305 306 306 305 306 307 307 308 311 315 318 320 322 325
295 295 295 295 294 295 294 295 294 294 294 294 295 295 295 295 294 294 294 295 294 294 294 294 293 293 293 292 292 292 292 292 292 291 290 290 290 289 290 290 289 290 290 290 291 291 291 292 292 293 293 292 292 293 294 294 294 295 295 296 297 297 298 299 300 300 302 301 302 303 303 304 305 304 305 306 306 306 306 308 311 313 314 319 323
295 295 295 294 294 294 295 294 295 294 294 295 294 295 294 294 294 294 293 293 293 293 293 293 292 292 292 292 292 292 291 291 291 291 291 290 290 289 289 289 289 289 289 289 290 290 291 291 290 292 292 292 292 292 292 293 294 294 294 295 297 297 298 299 300 300 300 300 301 302 303 303 304 305 306 306 306 307 308 307 308 309 309 312 318
295 294 295 294 294 295 294 294 294 293 294 294 294 294 293 293 293 293 293 293 292 292 292 292 292 292 292 291 291 291 291 291 290 290 289 290 289 289 288 289 288 289 288 289 289 290 290 290 290 290 292 292 292 292 292 292 293 294 294 295 296 297 298 299 299 300 300 301 301 301 303 303 304 304 305 305 306 306 306 307 307 308 308 311 318
294 293 294 294 294 294 294 294 293 293 293 293 293 293 293 292 293 292 292 292 292 291 292 291 291 291 291 291 291 291 291 289 290 290 289 289 289 288 288 288 288 288 288 288 289 289 289 289 290 290 289 290 291 292 292 292 292 293 293 296 297 297 298 299 300 300 300 301 301 302 301 303 303 304 305 305 305 306 307 307 306 307 307 309 312
293 293 293 294 294 293 293 293 293 293 292 292 292 292 292 292 292 291 292 292 291 291 291 291 291 291 290 290 290 290 290 289 289 289 288 288 288 289 288 288 288 288 288 288 289 289 289 289 289 289 289 289 290 291 292 292 291 292 294 294 294 296 296 297 298 299 300 301 301 301 302 302 303 303 304 304 305 305 305 305 306 307 307 308 308
291 291 292 293 293 293 293 293 293 292 292 293 293 292 293 292 292 291 291 290 290 290 290 290 290 290 290 290 290 290 289 289 288 289 288 288 288 288 288 288 288 288 288 288 288 288 288 289 289 288 290 289 288 290 291 292 290 289 288 288 291 295 296 297 297 300 301 301 301 301 302 302 302 303 304 303 304 304 305 306 306 306 307 308 309
292 291 293 293 293 293 293 293 293 292 293 292 293 292 292 291 291 291 290 290 290 289 289 290 289 289 290 290 289 289 289 288 288 288 288 288 288 288 287 288 288 287 287 288 288 288 289 288 288 287 287 288 288 291 291 292 288 289 289 288 287 287 292 295 299 301 300 300 300 300 300 301 302 303 303 303 303 304 305 306 307 308 308 308 310
291 290 291 292 292 292 292 293 292 292 292 292 291 292 292 291 291 290 289 288 288 289 289 290 289 289 289 289 289 289 288 287 288 288 287 287 287 287 287 287 287 288 288 287 287 287 288 288 288 287 287 285 287 288 291 290 289 289 285 286 286 287 286 291 291 293 295 296 296 298 300 300 301 302 302 302 303 305 306 309 310 312 313 314 314
290 290 291 291 290 292 293 293 292 292 292 291 291 291 290 290 290 289 288 288 288 288 288 288 289 288 287 289 288 288 287 287 287 287 286 286 287 287 287 287 287 288 287 287 287 287 287 287 287 286 286 286 285 287 288 290 290 291 288 286 285 285 285 287 289 290 295 296 297 298 298 299 299 300 301 301 302 302 302 302 303 303 305 306 308
290 291 291 291 291 292 293 292 292 292 291 291 291 290 289 289 288 287 287 287 287 288 287 288 288 288 287 288 287 287 287 287 287 286 286 286 286 287 287 286 287 287 287 287 286 287 287 287 287 286 286 286 285 285 285 289 289 289 290 289 288 284 285 287 287 285 292 293 294 296 297 299 300 299 300 300 300 301 301 302 304 305 306 307 307
290 291 291 291 291 293 292 292 292 291 291 291 291 290 289 289 288 288 288 288 287 288 288 287 287 287 286 286 287 287 287 286 286 286 286 286 286 286 286 286 286 286 286 286 286 286 286 286 286 286 286 286 286 284 285 286 288 288 288 288 288 289 289 286 284 286 284 290 293 293 294 296 297 297 297 298 300 300 300 301 301 301 302 304 306
290 290 290 290 290 291 291 291 291 291 291 291 290 289 289 289 288 287 287 287 287 287 287 286 286 286 286 286 286 286 286 286 285 285 285 285 285 285 285 286 286 286 286 286 286 286 286 286 286 286 285 285 285 284 285 286 285 285 288 287 287 288 289 289 289 287 285 284 286 292 294 294 295 296 297 297 298 298 299 300 300 301 302 304 304
289 289 290 290 290 291 290 291 290 290 290 290 289 289 288 289 288 287 286 287 287 286 286 286 285 285 285 285 285 285 285 285 285 285 284 284 284 284 285 285 285 285 284 285 286 286 285 285 285 285 285 285 285 285 285 285 285 285 285 286 287 287 287 288 289 289 286 284 284 286 287 292 293 294 295 296 298 298 299 299 300 301 301 301 303
289 290 290 290 290 290 289 289 289 289 289 288 288 288 288 287 287 287 286 286 286 285 286 285 285 285 284 284 285 285 285 285 284 284 284 284 284 284 284 284 284 285 284 284 285 285 285 285 285 284 284 284 285 285 284 284 285 285 286 285 284 284 285 285 286 286 286 286 283 284 286 287 286 290 294 295 296 297 298 298 299 300 301 301 302
289 289 290 289 289 289 289 288 288 289 288 288 287 287 287 287 286 286 286 285 286 285 284 284 284 284 283 283 284 284 284 283 284 283 284 283 283 283 283 284 283 283 283 284 284 284 284 284 284 284 284 283 283 284 283 284 284 284 285 284 283 283 283 282 283 284 284 283 284 284 286 287 287 288 291 294 294 296 297 298 298 298 299 300 301
Wind_Speed
7 8 7 10 14 12 13 13 13 14 14 15 15 14 14 13 11 9 8 7 5 5 3 4 5 7 8 10 10 10 10 10 8 8 9 9 10 9 9 9 9 8 6 6 7 7 8 7 7 9 4 5 4 4 6 6 6 7 8 10 11 11 10 9 9 9 9 9 10 12 12 12 12 12 12 10 10 8 7 6 7 8 9 10 8
7 7 5 7 12 12 12 13 13 13 14 15 16 16 15 14 13 13 12 11 10 9 9 8 8 8 9 10 10 10 10 9 9 10 9 9 8 7 7 7 6 7 9 10 9 8 8 8 8 7 8 6 3 3 4 5 6 6 7 9 10 10 10 9 9 9 10 10 9 9 10 13 14 13 11 10 11 10 7 7 7 9 8 8 10
4 4 4 7 9 10 11 11 12 12 13 14 14 14 14 15 14 14 13 13 14 13 12 13 12 11 12 11 11 11 11 11 11 11 11 11 11 9 8 7 7 8 8 8 11 11 10 10 9 9 8 5 5 4 4 5 6 7 7 8 9 10 10 9 8 9 10 10 10 9 9 11 13 15 12 11 10 11 8 7 7 9 9 8 7
3 4 4 5 7 10 10 11 11 12 12 13 13 13 13 13 14 13 13 14 14 14 14 14 14 14 13 12 12 13 13 13 14 14 14 14 14 13 12 10 8 8 8 9 10 11 11 11 12 10 8 4 4 7 7 5 6 7 8 8 8 9 10 9 7 8 9 10 11 10 7 9 9 12 12 12 10 10 8 8 9 9 11 10 10
2 3 4 5 6 10 10 11 11 11 12 12 12 13 13 13 13 14 13 13 13 13 13 13 13 13 14 14 13 13 13 14 14 15 15 15 15 15 15 14 12 10 9 10 10 11 11 11 11 12 10 5 4 5 6 6 6 7 8 9 9 8 9 9 8 8 8 9 10 10 9 10 8 6 9 10 7 9 9 7 8 9 12 11 12
2 3 4 5 6 8 10 10 11 11 12 12 12 13 13 13 13 13 13 13 13 13 13 13 14 14 14 12 13 12 12 13 14 14 14 14 15 15 14 14 14 12 11 10 9 10 10 11 11 11 12 11 6 4 5 7 7 8 8 8 9 9 9 9 9 10 9 8 11 8 9 9 8 6 6 6 6 8 9 8 6 9 11 13 13
3 3 4 5 5 8 9 10 11 11 12 13 13 13 13 13 13 13 13 13 13 13 13 13 14 15 14 13 13 13 13 13 14 14 14 14 13 13 14 13 13 12 12 11 11 11 10 10 10 10 10 11 10 9 7 7 8 8 8 8 9 10 11 10 10 10 10 9 6 7 6 8 8 7 5 8 8 9 10 11 9 10 13 15 15
4 4 4 5 6 8 9 10 11 11 12 13 13 14 14 14 14 14 14 14 14 14 15 15 15 15 14 14 13 13 14 14 14 14 14 14 13 13 13 14 13 13 12 11 10 10 10 11 11 10 10 10 9 12 12 11 10 8 8 8 7 9 10 9 9 10 11 9 7 6 7 7 8 7 7 8 10 11 11 14 10 10 12 15 10
4 4 4 6 7 9 10 10 11 12 12 13 14 14 15 15 15 15 15 15 16 16 16 16 17 16 16 15 14 14 14 14 15 15 15 15 14 14 14 14 13 13 12 13 13 13 12 11 11 11 10 10 10 11 12 12 12 9 7 7 8 9 8 8 8 9 10 8 8 7 7 8 8 8 8 9 10 12 13 12 12 11 11 10 7
4 5 5 6 7 8 9 10 11 12 13 14 14 14 15 15 15 16 16 16 17 17 17 17 17 17 17 16 16 15 15 16 16 16 16 16 16 16 16 15 14 14 13 13 13 14 14 13 12 12 12 12 12 12 12 11 12 12 9 8 8 9 8 7 8 10 8 9 9 9 7 6 8 8 10 11 12 13 12 11 9 12 9 8 9
5 5 5 7 9 9 10 11 11 12 13 13 14 14 14 15 15 16 16 16 16 17 17 18 17 17 17 17 16 16 16 16 16 16 16 16 16 16 16 16 16 15 15 14 14 13 13 14 14 14 14 13 12 12 12 11 11 11 11 9 8 8 8 7 8 8 8 9 9 8 10 5 7 8 9 9 12 14 12 11 8 9 9 7 12
6 5 5 6 9 10 11 11 12 12 12 13 14 14 14 14 15 15 15 15 16 16 17 17 17 17 16 16 16 16 16 16 16 16 15 15 15 15 15 16 16 16 15 15 15 14 13 13 14 14 14 14 14 13 13 12 11 10 10 10 9 8 6 8 7 8 9 9 10 9 9 9 10 9 4 8 12 13 13 12 9 11 14 14 14
6 5 5 5 7 10 11 12 12 12 12 13 13 14 14 14 15 15 15 15 15 16 16 16 16 16 16 16 15 15 15 15 15 15 15 15 15 15 15 15 15 15 15 15 15 15 15 14 14 15 15 15 15 14 14 14 13 12 11 10 9 8 7 7 8 9 9 9 8 9 10 9 9 8 7 11 13 14 15 15 13 12 14 16 16
6 5 5 6 6 10 11 11 12 12 12 13 13 13 13 14 14 14 15 15 15 15 15 15 15 15 15 15 15 15 15 15 15 15 15 15 16 15 15 15 15 14 14 14 15 15 15 15 15 15 15 16 16 16 16 15 14 13 12 11 10 9 8 8 10 9 9 9 8 9 10 9 9 5 6 11 14 14 15 16 14 13 15 16 17
6 5 5 5 6 7 10 11 11 11 12 12 13 13 13 13 14 14 14 14 14 14 14 15 15 15 14 14 14 14 15 15 15 15 15 15 16 16 16 16 15 15 15 15 14 14 14 15 15 15 15 15 16 16 16 16 16 15 13 12 11 9 8 7 8 9 9 9 8 9 9 9 10 6 8 12 15 15 16 16 15 14 12 14 17
6 6 5 5 5 5 6 9 10 10 11 12 12 12 13 13 13 13 14 14 14 14 14 14 14 14 14 14 14 14 14 14 15 15 15 15 15 16 15 15 15 15 15 15 14 14 14 13 14 14 15 15 16 16 17 16 16 15 14 13 12 12 10 7 7 8 9 9 9 9 8 8 7 8 12 14 15 15 16 16 16 15 14 13 16
6 6 6 6 6 5 6 7 7 10 10 12 12 12 11 12 12 13 13 13 13 14 13 14 14 14 14 14 14 14 14 14 14 15 15 15 15 16 15 15 15 15 15 15 14 14 14 13 12 12 13 14 15 16 16 16 16 15 15 15 14 12 11 9 7 8 8 9 9 9 9 9 7 8 11 14 15 16 16 17 16 15 14 11 16
5 6 7 6 5 5 6 5 6 6 6 7 11 11 11 11 12 12 12 13 13 14 13 13 13 13 13 13 12 12 12 13 13 13 14 14 14 14 15 15 15 14 15 14 14 13 13 13 13 12 12 12 12 13 14 14 15 15 15 15 14 14 12 11 7 9 9 9 9 9 9 10 7 7 11 13 15 17 17 17 17 16 14 12 14
5 6 6 6 6 6 6 5 6 6 6 5 5 8 10 10 11 11 12 13 13 13 14 13 13 12 12 11 10 9 9 11 10 11 11 13 13 12 14 13 14 14 14 13 13 12 12 12 12 12 12 12 12 12 11 10 12 13 14 14 14 14 15 9 8 8 10 9 9 9 9 8 5 10 14 15 16 17 18 18 17 15 15 14 13
5 5 6 5 5 5 5 5 5 5 5 5 5 6 8 9 10 11 11 12 12 12 12 12 11 11 10 9 7 7 7 7 9 7 10 10 12 11 12 12 12 13 13 13 13 13 12 12 12 12 12 12 13 13 10 9 9 10 10 13 13 15 9 6 8 9 9 9 9 8 9 6 9 12 14 16 17 17 18 19 19 16 15 14 14
3 5 5 5 5 5 5 5 5 6 5 5 4 5 4 3 6 7 9 10 10 11 10 10 9 9 9 8 5 8 7 6 7 8 8 8 10 12 12 11 11 11 11 11 11 11 12 12 12 12 12 13 14 13 9 8 9 8 9 9 12 8 7 7 8 8 8 8 8 9 9 4 9 13 15 17 18 19 19 19 19 18 16 15 15
7 6 5 5 5 5 5 5 5 5 5 4 3 3 3 3 3 4 5 6 7 7 8 7 8 7 7 6 6 6 5 6 7 9 6 8 8 11 11 11 11 11 12 10 9 9 11 11 11 12 13 12 12 7 6 7 8 7 8 10 7 6 6 7 7 8 8 9 9 9 7 6 11 15 16 18 20 20 20 20 20 19 18 16 14
7 6 6 6 5 5 5 5 5 5 6 4 2 3 3 2 3 3 3 4 5 6 6 6 6 6 5 5 5 5 5 4 5 5 6 7 6 8 10 10 10 10 13 11 9 8 10 9 9 10 11 10 7 5 5 6 6 8 8 6 5 5 6 8 8 8 8 8 9 10 7 10 13 16 17 19 21 21 21 21 20 19 19 17 15
8 7 7 5 5 5 5 5 5 4 4 3 3 3 2 2 1 1 2 2 3 4 5 6 5 5 4 4 4 4 4 3 4 2 5 4 5 6 8 9 9 9 13 8 8 7 11 7 8 9 6 4 5 5 6 6 6 6 6 6 6 7 7 7 7 8 8 9 9 11 9 12 14 16 18 19 20 21 22 22 22 20 19 18 16
8 7 6 7 7 6 5 5 4 4 3 3 3 2 2 2 2 1 1 2 2 3 4 5 5 5 5 4 4 3 2 3 4 4 5 5 5 6 6 6 6 7 9 6 6 6 6 6 6 6 5 5 5 6 6 6 6 7 7 7 6 7 7 7 7 8 8 9 10 10 7 11 14 16 18 19 19 20 21 22 23 22 20 18 18
8 8 9 8 8 6 5 5 5 4 3 3 2 3 1 2 1 1 1 2 3 3 3 4 4 5 4 4 3 3 4 3 4 5 5 5 6 6 6 6 7 7 7 6 6 6 6 6 6 6 5 5 5 6 6 6 6 6 7 7 7 7 7 7 8 8 9 9 10 11 9 9 15 17 18 19 19 20 21 21 23 24 22 18 18
9 9 9 8 8 8 7 6 5 5 4 2 3 2 2 2 1 1 1 2 2 3 3 4 4 5 4 4 4 4 4 4 5 5 6 6 6 6 7 7 7 7 7 7 7 6 6 5 5 5 6 6 6 6 6 6 7 7 7 7 8 8 8 8 8 8 9 9 11 13 12 12 15 19 19 19 20 20 21 21 22 23 24 22 20
10 10 10 9 9 9 8 8 6 6 5 5 4 3 3 2 2 2 1 2 2 3 3 4 4 4 5 5 4 4 4 4 5 5 5 5 6 6 6 6 6 6 7 6 7 7 6 5 6 6 6 5 6 6 6 6 6 7 7 7 8 8 8 8 8 9 9 9 10 12 13 14 13 16 20 21 22 22 22 22 21 24 25 25 23
12 12 10 10 10 9 9 8 8 8 6 6 5 4 4 3 3 2 2 1 2 3 3 3 4 4 5 6 5 4 4 4 5 5 4 5 5 5 5 5 6 6 6 6 6 7 6 6 5 6 5 5 6 6 6 7 6 6 7 8 8 8 9 9 9 9 9 9 9 11 13 14 16 19 21 22 23 23 24 23 24 24 24 26 26
12 12 11 9 9 9 9 9 8 7 6 6 5 5 5 4 3 2 3 2 3 3 3 3 3 4 4 5 5 4 4 4 4 4 4 5 5 5 5 5 6 6 6 6 6 6 6 6 6 6 6 6 6 6 6 6 7 7 7 7 8 8 8 9 9 9 9 9 9 10 14 14 14 19 21 22 23 23 24 25 25 26 25 25 25
12 13 11 9 9 9 8 8 7 7 7 7 5 5 5 4 4 3 3 2 3 3 3 4 4 4 4 4 4 4 3 3 3 4 4 4 4 5 5 5 5 6 6 7 7 7 7 6 6 7 7 6 6 6 6 6 7 7 7 8 8 8 9 9 9 10 10 10 10 10 12 14 15 17 20 22 23 24 24 25 26 26 27 27 26
14 13 11 10 10 10 9 8 8 7 7 7 6 5 5 4 4 3 3 3 3 3 4 3 3 4 4 3 3 3 2 2 3 3 4 4 4 5 5 5 5 6 6 6 8 7 7 7 7 7 8 7 7 7 7 7 7 7 7 8 8 8 9 9 10 10 11 11 10 10 10 11 14 15 17 21 23 24 25 25 26 27 26 27 27
10 12 11 11 12 10 9 9 8 8 7 7 6 5 5 4 3 3 3 2 3 3 3 3 3 3 2 2 2 2 2 3 3 4 4 3 4 4 5 5 5 6 6 8 9 7 6 7 7 7 6 7 7 7 7 7 8 8 8 8 8 10 9 9 10 10 11 11 11 11 11 11 12 14 16 18 21 23 25 26 27 26 27 27 28
11 10 12 13 10 6 6 6 7 7 6 5 5 5 4 3 3 3 3 2 3 3 3 3 3 2 1 2 2 3 3 3 3 3 3 3 4 4 5 5 5 7 6 6 7 6 6 7 7 7 7 7 7 7 8 8 8 8 8 9 9 9 9 10 10 10 10 11 11 11 11 11 11 11 11 14 17 19 22 24 25 27 27 27 28
10 11 14 14 11 8 6 5 6 7 6 6 5 5 4 3 3 3 3 2 3 3 2 3 2 1 1 1 2 3 3 3 3 3 4 3 4 3 4 4 5 7 6 5 6 6 6 7 7 7 7 7 8 8 8 8 9 9 9 9 10 10 10 10 11 11 11 11 11 12 12 12 11 11 11 11 13 16 18 19 24 26 27 28 28
14 13 12 12 12 10 8 7 7 7 6 6 5 5 5 4 3 3 3 3 3 2 2 2 1 1 1 0 1 2 2 3 3 3 4 3 4 4 4 4 6 5 5 6 5 5 5 6 6 6 7 8 8 9 8 9 9 9 9 9 10 10 10 11 11 12 11 12 11 12 11 12 12 11 12 12 12 13 16 17 18 21 24 27 29
13 13 13 12 11 10 9 9 9 8 7 7 6 5 4 4 4 4 3 3 3 3 2 1 1 1 0 1 1 2 3 3 3 3 4 4 4 4 4 4 5 5 5 5 5 4 5 5 6 6 7 8 8 10 9 9 9 10 10 11 11 11 11 11 12 12 11 12 13 13 13 13 12 14 13 13 13 12 15 17 19 21 23 24 27
12 14 13 13 12 11 9 9 8 8 7 7 6 6 5 4 4 3 3 3 3 2 1 1 1 1 0 1 1 3 3 3 4 4 4 5 5 5 5 5 5 5 5 6 5 5 5 5 6 6 6 7 8 8 9 9 9 10 11 12 12 11 11 12 12 12 12 13 13 13 13 12 11 12 12 12 12 13 13 15 18 20 22 23 25
11 13 12 12 10 9 8 8 8 8 7 6 6 5 5 3 3 3 3 3 3 2 1 1 1 1 1 1 2 3 3 4 4 5 5 4 5 5 5 6 6 6 6 6 5 5 5 5 7 7 7 7 8 9 9 10 10 11 12 13 13 14 13 12 13 12 13 14 13 13 11 12 12 12 12 12 12 13 14 13 13 13 14 20 23
11 12 14 12 11 10 9 9 9 9 8 7 6 5 4 4 4 4 4 3 3 2 2 1 1 1 1 2 3 4 4 4 5 5 5 5 5 5 6 6 6 6 6 6 5 4 5 6 7 8 9 8 8 8 8 9 11 13 14 13 12 14 15 14 15 14 14 13 12 11 11 11 11 12 13 12 12 12 12 13 12 13 14 17 21
13 13 14 13 14 12 11 12 10 9 8 8 7 6 6 4 3 3 3 3 2 1 2 1 1 1 1 3 4 4 4 5 5 4 5 5 6 6 6 7 7 7 7 6 6 6 6 6 6 6 8 8 7 6 7 9 11 12 10 13 14 14 15 16 16 15 14 12 11 11 10 11 11 11 11 11 13 13 13 13 13 13 14 14 16
14 14 15 15 14 14 13 11 9 9 9 8 7 6 5 4 4 4 3 2 1 1 1 2 1 1 3 4 5 5 5 5 4 5 5 6 6 6 6 7 7 7 7 7 7 7 7 6 5 6 6 7 8 6 7 8 8 10 15 15 12 9 11 13 14 14 13 11 10 11 11 11 11 10 10 11 12 13 13 13 13 13 14 15 15
15 15 15 15 14 13 13 12 10 10 8 7 6 5 4 4 3 3 2 1 1 0 1 1 2 3 4 5 5 5 5 4 5 5 5 6 6 6 7 7 7 7 6 6 6 6 5 6 6 6 7 6 7 6 6 4 9 10 11 13 14 16 10 6 6 5 5 8 10 12 12 11 12 11 10 11 11 12 12 12 13 14 15 15 15
13 14 15 16 11 12 13 12 11 10 8 8 6 5 5 5 4 2 2 1 1 0 2 4 4 5 6 5 5 4 5 5 5 6 6 6 6 7 7 7 7 7 7 6 6 6 5 5 5 6 6 8 6 7 5 6 6 8 10 8 13 11 16 7 10 12 11 15 15 13 10 10 11 11 10 11 11 11 11 11 13 13 14 15 14
15 15 15 14 9 14 13 13 11 10 9 8 8 7 6 5 4 3 1 2 2 3 4 5 5 5 5 5 4 4 6 6 5 6 6 7 7 7 7 7 8 7 6 6 6 6 6 6 6 6 6 7 9 8 7 7 7 6 7 10 9 8 10 14 17 17 5 7 8 10 11 14 14 12 11 12 13 13 14 15 15 15 16 16 17
16 15 14 12 12 12 12 12 9 9 9 10 9 7 6 5 5 4 4 4 5 5 5 5 4 4 3 3 5 5 6 6 6 6 6 6 7 7 7 8 8 7 6 5 6 6 6 6 6 6 7 8 8 9 9 7 7 7 8 9 9 11 15 16 12 15 13 10 13 12 12 12 10 12 13 13 14 13 12 13 13 14 14 14 15
15 13 12 13 14 11 11 11 10 9 9 10 10 7 7 6 6 5 4 4 4 4 3 2 3 3 3 5 5 5 5 6 6 6 6 6 7 7 8 8 8 7 6 6 6 6 6 6 5 6 7 6 7 9 10 8 7 8 8 10 12 13 14 13 13 14 18 14 7 11 12 13 15 16 16 16 15 15 14 14 16 17 18 16 16
13 13 13 12 14 12 12 11 9 9 8 9 10 8 7 7 6 6 5 5 6 5 4 3 4 4 5 6 6 5 5 5 6 6 6 7 7 8 8 8 8 7 6 6 6 6 6 6 7 8 7 7 8 9 10 8 8 9 6 8 10 11 13 15 16 14 15 18 21 11 11 14 13 14 15 17 18 17 17 16 16 16 15 16 16
12 14 13 12 11 11 12 11 11 10 10 11 10 9 7 7 7 7 7 6 6 5 4 4 4 5 6 6 6 6 6 6 6 7 7 7 8 8 8 8 8 7 6 6 6 7 8 9 9 8 8 8 8 8 9 9 9 9 8 9 9 10 11 12 13 14 13 15 19 18 16 12 13 15 14 15 16 16 16 16 16 16 16 16 17
12 11 11 10 11 10 12 13 13 10 10 11 10 10 9 8 8 8 8 7 6 5 5 5 5 5 6 7 6 6 5 5 5 6 7 8 8 8 8 8 8 7 6 7 8 8 9 9 10 10 9 10 9 9 10 10 9 10 10 9 10 9 10 10 11 11 14 15 17 19 18 17 17 14 13 14 16 16 17 17 18 17 17 16 16
11 13 12 13 12 12 13 15 14 10 12 12 12 11 10 9 9 9 10 9 8 6 6 6 6 6 6 6 5 5 5 6 5 6 7 8 8 8 8 7 7 6 7 7 8 8 8 8 9 10 11 11 9 10 12 13 12 12 12 11 13 13 11 11 10 10 11 13 14 16 18 18 18 19 16 17 16 18 17 16 17 18 18 18 18
Wind_Direction
37 357 344 347 341 3 26 30 36 40 45 44 46 47 49 49 51 52 51 52 52 33 27 1 3 1 353 352 346 340 341 341 341 344 334 331 336 349 353 347 350 338 333 336 341 340 344 346 348 343 356 356 348 341 337 331 322 312 308 311 310 313 315 318 324 326 325 324 318 305 286 275 272 271 278 271 270 262 229 217 216 225 232 222 228
331 342 352 356 339 22 33 39 43 46 48 49 47 47 47 49 55 60 60 65 60 58 53 47 46 38 33 27 18 10 3 355 358 353 351 349 356 358 352 349 356 355 343 338 332 334 333 335 338 339 338 349 348 311 319 313 315 304 302 298 300 304 309 314 319 321 322 318 313 302 288 282 277 273 266 267 271 269 243 228 221 244 235 236 213
315 333 348 7 339 33 41 44 48 51 53 54 56 52 51 51 51 54 59 65 65 63 61 62 59 58 55 50 41 37 35 29 27 18 18 16 13 8 3 1 0 360 355 345 344 334 332 331 329 331 333 347 331 318 289 289 284 296 291 292 297 300 305 309 310 316 316 316 313 309 287 273 270 270 260 264 264 267 261 231 226 237 258 249 221
353 348 352 25 42 34 43 48 52 54 56 55 58 57 58 55 53 54 60 57 61 64 65 64 63 59 56 52 52 44 43 44 40 39 34 34 31 28 25 16 9 6 1 348 342 334 333 331 328 324 330 329 302 322 316 266 263 271 285 289 294 299 300 302 302 304 311 312 309 310 291 273 253 235 241 246 259 274 265 234 224 225 250 243 231
359 358 19 35 39 43 39 50 53 55 54 58 57 58 58 57 58 58 58 57 58 59 60 59 59 58 51 48 47 44 46 44 44 43 42 43 45 44 39 32 24 14 6 351 338 331 331 328 328 322 320 333 317 325 321 303 278 269 288 299 296 289 293 295 296 298 301 305 308 299 287 282 273 264 218 240 259 277 278 255 216 231 243 237 233
14 25 41 43 49 48 39 50 52 53 55 54 55 56 55 57 58 60 60 61 58 58 58 59 58 55 50 45 44 43 46 47 47 47 45 45 45 44 43 39 35 30 22 10 354 338 330 328 331 328 325 327 332 326 323 319 313 305 301 301 299 298 288 287 295 296 295 301 285 273 279 284 284 265 225 246 261 276 280 279 224 244 241 239 234
57 32 46 53 63 43 38 48 52 51 54 53 53 53 53 53 55 56 56 57 59 61 60 60 61 60 56 51 44 44 45 48 47 47 46 44 44 44 42 37 34 32 26 19 11 359 348 338 335 335 327 321 329 334 328 327 321 311 300 296 298 297 296 296 294 297 296 289 285 290 288 292 296 295 300 291 282 284 287 284 265 258 256 244 243
78 60 62 67 56 51 45 54 52 55 53 52 53 51 51 50 50 50 51 52 54 56 57 58 58 59 59 55 53 48 48 48 47 47 45 43 43 45 44 38 32 29 24 18 13 12 6 357 350 342 335 332 336 342 346 340 329 319 305 295 291 292 290 289 284 288 292 288 284 291 293 298 296 296 297 290 292 291 286 289 284 269 257 257 250
93 83 77 75 70 49 49 54 58 57 55 54 52 52 51 51 49 49 49 49 50 51 50 51 52 53 54 53 51 49 49 47 46 44 41 41 39 39 42 41 37 32 27 22 16 13 10 7 2 357 351 345 348 352 348 341 338 337 324 312 302 294 283 280 272 276 276 284 290 281 290 289 292 289 286 292 298 293 290 289 288 268 249 248 245
94 82 65 69 68 55 61 56 57 56 58 57 55 54 52 50 50 51 49 49 50 50 50 48 48 50 49 49 48 47 47 47 44 41 39 37 36 36 36 37 36 32 29 24 20 12 12 14 12 12 12 12 12 5 354 344 337 335 330 317 305 304 299 288 276 264 280 288 291 288 279 294 283 283 287 298 298 295 291 288 285 289 287 240 234
85 75 76 74 61 62 61 63 61 59 59 59 58 58 56 54 53 50 50 49 49 49 48 47 47 46 47 46 45 45 45 44 43 41 39 37 35 34 34 33 32 30 27 25 22 20 15 12 14 15 17 15 11 5 357 348 340 336 331 324 313 308 303 292 283 291 294 298 293 290 288 213 264 268 273 285 291 291 290 288 286 261 259 238 228
85 79 73 73 67 56 64 62 60 62 62 61 60 59 58 58 56 54 52 52 52 51 49 47 46 45 45 44 44 43 43 43 41 39 38 38 37 36 34 32 29 27 25 23 19 19 20 18 15 15 14 14 12 7 3 358 347 339 333 326 320 312 295 295 289 294 294 294 293 293 286 285 286 287 316 273 278 285 286 282 265 265 263 259 245
80 75 77 76 71 53 59 62 61 61 62 62 62 60 59 59 57 57 56 55 54 53 51 50 48 46 45 43 42 40 39 39 40 39 36 36 35 35 34 32 29 26 23 21 18 16 16 16 16 15 14 12 9 6 1 360 357 352 344 334 322 311 290 276 291 288 290 290 290 290 288 281 277 275 272 275 273 277 281 282 276 260 255 253 245
93 84 76 78 70 59 58 59 63 63 62 62 63 62 62 61 60 60 58 57 57 56 55 52 50 48 46 45 42 40 38 37 37 36 36 33 33 31 30 30 27 26 23 21 18 15 14 13 13 14 13 9 7 4 1 358 355 354 351 345 338 332 317 276 271 287 285 286 287 285 284 280 277 273 250 271 274 275 277 280 278 267 260 256 247
100 82 82 84 87 79 64 60 62 64 65 65 63 63 63 63 63 62 61 60 59 58 58 55 54 50 47 45 42 40 38 37 36 34 33 33 31 30 28 26 23 21 20 19 18 16 14 12 10 10 9 7 4 2 360 356 353 352 353 351 346 337 331 302 288 283 284 284 280 279 278 278 289 291 266 263 272 275 275 276 277 276 260 248 255
106 106 98 92 96 94 91 72 63 59 61 64 63 64 63 64 65 63 63 62 60 60 58 56 54 52 50 47 43 41 38 38 35 34 33 31 29 27 26 24 21 18 17 14 14 14 12 12 10 9 7 3 2 358 356 352 349 349 349 350 350 346 341 325 283 276 278 277 277 277 272 271 280 284 276 270 273 279 277 276 276 276 270 245 256
116 119 111 106 102 102 89 83 75 74 61 56 59 59 60 62 63 65 65 64 64 62 58 57 54 52 49 46 44 41 40 38 37 35 33 30 26 25 22 21 19 17 15 12 10 9 7 7 7 5 6 1 358 354 351 347 346 346 346 344 343 340 331 322 285 269 268 270 274 275 278 276 265 269 278 277 276 279 281 280 278 276 270 247 245
132 135 122 117 108 100 97 93 82 75 76 76 60 50 54 57 59 62 64 64 63 60 59 55 53 51 48 45 43 41 39 37 36 35 32 28 23 21 19 18 17 15 13 11 8 6 3 2 359 358 358 357 353 349 344 342 341 342 341 339 335 327 317 297 278 270 264 266 265 262 264 267 273 271 274 277 279 282 283 282 281 277 270 254 238
136 131 125 124 118 114 107 97 87 85 78 72 72 60 44 49 53 57 60 61 61 60 57 53 50 47 44 41 35 40 38 36 31 34 30 28 20 16 13 12 12 9 8 5 3 2 0 358 354 352 351 348 345 340 335 332 337 335 336 335 328 321 304 275 269 269 270 266 262 260 260 268 265 275 277 275 276 277 281 282 281 279 276 265 241
137 138 132 130 123 121 116 105 98 90 85 82 77 74 53 38 44 49 53 57 56 57 55 50 48 39 38 26 28 29 34 40 25 28 22 23 20 10 8 9 9 4 1 359 357 355 355 353 351 347 346 342 337 328 318 321 327 329 327 325 323 308 290 295 301 292 279 272 270 269 268 251 250 265 274 278 277 276 276 279 281 279 277 272 253
159 154 148 138 136 129 125 114 108 104 97 92 87 77 56 40 69 50 54 51 53 53 51 50 45 47 29 27 21 29 22 18 20 11 10 14 17 2 1 2 4 2 356 353 352 350 349 347 345 344 341 337 332 317 302 312 316 316 317 309 299 291 301 307 304 294 287 283 275 270 275 273 268 271 273 275 275 274 274 275 277 278 276 272 265
169 159 155 149 147 137 133 133 122 118 115 111 108 104 113 84 67 74 59 66 55 62 58 53 48 40 31 33 33 29 18 19 15 8 357 359 6 354 352 352 352 354 349 343 343 347 345 340 340 339 335 331 320 314 326 322 307 305 298 279 272 295 294 299 301 290 288 281 278 277 302 287 278 275 275 276 276 275 274 274 274 275 273 272 265
172 166 161 164 159 151 155 136 131 130 124 122 124 124 123 108 105 97 97 79 76 68 71 63 55 44 39 38 36 32 14 20 19 352 324 326 337 336 341 340 343 345 347 337 339 338 338 332 333 333 324 318 315 324 325 321 319 312 291 287 310 298 302 291 284 280 277 281 280 283 293 288 284 282 278 274 274 275 274 273 272 272 272 271 266
172 173 161 163 168 163 152 141 138 136 149 129 146 135 126 130 119 121 109 101 90 86 76 71 61 52 45 48 41 29 9 13 4 352 305 344 346 336 334 329 338 341 344 334 335 344 332 330 330 327 313 332 330 325 326 322 319 322 318 311 308 311 301 295 286 281 277 276 274 277 278 277 280 282 281 278 275 274 274 275 273 270 271 269 265
171 157 160 169 172 167 159 151 148 141 142 143 152 132 124 141 127 130 108 94 88 81 79 76 65 54 51 48 43 35 21 20 12 358 354 349 345 344 343 347 345 340 342 340 342 341 337 341 338 337 337 329 328 324 322 318 318 316 314 311 307 304 300 295 290 286 283 277 272 273 274 277 277 276 277 277 276 273 273 273 275 273 268 268 270
158 170 172 167 172 170 170 160 160 154 143 147 144 113 187 136 126 109 122 87 83 73 72 69 67 55 50 38 37 38 24 22 15 5 360 356 354 353 350 348 346 343 345 342 345 339 336 339 338 338 333 330 320 317 314 311 310 309 309 310 306 303 298 296 293 288 286 284 279 281 281 285 283 280 275 273 273 271 270 270 272 274 271 262 264
171 178 168 169 169 168 169 169 168 157 153 150 146 152 131 122 104 46 27 81 73 71 67 69 65 57 47 42 29 30 24 20 12 8 4 359 359 355 350 350 348 348 347 341 342 338 336 333 333 327 326 316 313 306 303 299 298 298 299 300 300 300 297 294 292 291 288 287 284 286 285 283 281 281 281 277 272 268 267 266 269 270 271 266 259
176 174 172 168 169 171 170 174 171 168 162 166 168 154 137 119 121 141 100 45 52 66 70 62 67 64 48 36 26 29 24 21 14 9 2 3 357 349 345 345 346 345 343 341 339 337 335 332 327 320 314 311 305 301 297 296 294 292 290 293 296 294 293 294 291 288 285 285 285 283 281 278 274 277 281 280 279 274 266 263 261 265 267 268 265
182 175 172 172 171 168 173 179 170 173 167 168 168 150 145 146 144 139 110 94 85 80 72 76 65 60 52 39 27 23 22 20 15 5 359 1 352 347 342 345 337 340 339 336 337 330 327 327 323 322 317 311 306 300 300 293 291 292 291 290 289 290 289 286 285 284 282 281 282 283 286 286 281 280 277 276 276 276 273 266 262 259 262 265 265
184 171 170 175 169 170 179 178 175 171 167 175 163 157 155 147 148 135 127 148 103 94 94 73 66 56 55 40 33 24 22 13 12 359 358 356 350 348 343 344 339 341 338 334 332 323 321 319 321 317 314 308 303 300 296 292 291 289 287 287 285 286 285 284 282 281 280 280 279 281 276 275 279 282 281 279 276 274 275 274 270 263 258 260 264
175 177 175 173 165 172 177 174 171 168 173 173 161 149 147 148 146 151 143 126 120 110 91 83 71 64 55 40 37 27 15 21 6 2 352 351 351 348 343 340 338 342 337 330 329 320 315 316 319 319 319 315 307 304 296 295 291 288 285 284 284 284 283 281 278 277 278 278 279 281 279 273 271 273 275 277 275 272 269 269 271 269 266 262 258
179 177 176 167 167 177 173 173 173 174 176 164 152 145 142 138 147 147 132 116 106 94 90 85 80 75 60 47 33 22 11 3 16 5 352 345 347 345 338 338 334 335 329 327 322 315 311 309 310 309 306 306 308 306 305 298 292 289 290 286 284 282 281 280 279 276 275 275 277 277 279 280 271 268 271 274 275 274 271 266 264 267 266 265 263
180 174 171 165 173 175 171 173 174 171 176 158 144 138 135 138 136 133 122 123 103 94 91 89 84 84 79 54 36 17 359 8 4 0 344 338 339 332 336 331 329 331 323 319 315 310 310 314 314 311 304 307 300 300 300 294 294 294 290 287 289 286 282 281 278 275 273 273 274 274 275 277 277 272 264 264 268 268 269 267 265 261 265 266 264
172 174 166 174 171 165 167 165 172 167 159 145 140 137 134 129 130 133 126 143 105 106 105 97 89 90 86 71 26 19 0 3 353 340 332 332 329 323 328 325 328 324 314 318 320 319 316 317 317 317 318 307 307 306 303 296 294 293 292 292 287 285 284 282 281 277 274 272 270 270 271 271 273 274 274 266 265 267 267 267 265 263 260 263 264
168 172 174 175 167 167 166 162 168 151 143 131 130 121 125 137 145 143 133 127 115 117 112 106 106 94 51 82 25 6 350 348 339 328 322 319 317 311 313 316 325 315 308 315 312 310 312 315 317 317 312 306 305 304 300 298 297 292 288 286 286 287 283 280 278 278 274 271 268 268 267 266 267 270 269 272 264 258 261 262 263 263 263 261 260
178 169 168 169 172 169 171 162 160 145 138 129 129 131 139 144 141 136 134 128 124 121 118 115 126 125 116 344 55 330 336 328 322 319 306 305 302 300 299 312 312 302 301 300 298 298 308 305 304 302 306 304 301 297 296 295 294 292 290 285 280 278 281 280 276 274 272 274 271 269 268 268 266 265 268 272 273 273 267 270 272 270 264 261 260
174 166 171 167 170 164 170 165 160 151 145 141 141 144 147 146 150 140 129 139 130 125 122 144 168 178 137 310 347 305 308 309 301 295 288 281 284 286 290 291 297 291 286 288 283 287 292 290 291 292 287 293 294 290 290 291 291 288 286 281 278 275 270 272 272 271 273 269 269 268 267 265 268 268 266 266 269 271 267 261 261 260 261 261 262
171 171 171 172 175 169 173 168 154 153 150 151 156 159 153 152 155 141 127 123 123 130 139 176 202 200 267 276 306 288 282 293 282 276 275 275 272 274 277 278 279 276 272 274 276 276 277 287 293 291 292 292 292 296 297 295 291 287 282 277 274 269 266 264 262 264 264 264 263 262 263 269 269 268 271 274 273 272 273 268 262 260 256 254 253
169 172 169 174 171 168 168 159 157 155 153 153 153 154 153 158 143 142 135 138 151 144 168 187 197 226 251 304 280 271 265 275 272 266 267 272 272 269 269 270 272 268 268 271 272 268 270 280 284 289 287 286 292 294 296 298 293 286 281 279 277 271 268 264 263 259 257 258 259 261 264 262 261 263 262 265 268 273 273 272 274 272 264 250 245
168 172 173 175 174 171 171 168 171 167 161 163 166 174 175 173 164 154 160 160 158 162 165 192 190 237 250 271 271 264 270 275 273 268 268 269 274 271 268 266 258 259 259 262 267 275 283 285 281 285 288 286 280 285 295 300 296 290 283 278 275 275 267 260 258 255 255 254 257 258 257 255 254 255 255 257 259 263 268 273 271 269 269 268 261
175 175 175 179 182 177 175 177 171 169 174 173 178 179 180 172 172 188 175 152 157 137 172 164 192 238 251 266 261 257 264 272 271 271 273 272 267 268 263 259 252 254 254 257 262 270 272 272 280 279 281 285 287 287 295 301 299 296 295 291 287 271 264 260 254 253 253 253 252 252 250 255 256 258 260 261 264 264 265 266 268 271 270 272 267
184 177 180 183 183 181 181 176 172 177 185 182 172 177 179 183 168 163 155 147 150 175 170 160 204 238 252 253 256 259 263 271 275 277 272 268 269 266 264 261 258 259 260 263 262 262 263 262 273 283 270 279 285 290 297 306 305 318 319 314 294 280 271 265 252 247 255 256 259 262 264 265 263 265 268 268 267 266 266 267 266 265 268 270 271
178 180 182 181 181 180 184 180 174 176 178 173 167 172 164 146 164 135 142 111 132 0 312 277 259 253 252 251 255 258 267 269 273 273 272 263 262 265 265 264 259 260 263 261 258 258 260 267 271 277 296 282 280 277 283 308 307 311 298 295 312 325 309 251 250 228 259 285 281 273 274 274 273 273 273 271 269 270 270 270 270 270 271 269 270
176 182 187 186 177 182 185 178 173 176 171 167 169 157 145 128 125 105 98 258 297 221 265 260 248 241 245 240 246 257 267 271 268 266 261 263 266 269 269 263 262 259 261 265 265 265 261 265 269 275 283 292 290 291 283 290 288 316 314 318 304 302 302 308 326 296 290 278 272 273 272 276 284 284 283 279 281 282 281 283 281 282 280 278 274
185 187 187 184 171 184 180 174 171 175 169 161 165 154 138 145 141 129 163 215 238 242 239 233 218 218 227 224 233 252 265 267 267 264 265 268 265 262 264 266 265 261 261 263 265 264 267 266 268 270 271 283 294 291 287 274 268 264 287 311 311 293 290 310 329 304 302 301 304 295 290 290 289 288 286 282 281 281 281 276 273 270 272 274 275
192 191 184 178 173 182 174 172 169 171 167 164 163 161 168 177 173 185 198 208 216 205 218 224 213 226 239 249 249 246 255 261 262 265 265 266 268 267 267 266 264 262 258 265 268 268 258 256 257 265 269 266 274 287 284 274 258 256 253 256 260 283 305 309 316 304 310 290 289 285 286 285 287 289 283 280 279 279 278 279 279 277 275 272 268
194 178 174 179 182 176 168 171 170 168 163 162 160 163 169 183 192 202 219 228 234 233 236 254 252 261 269 268 267 258 256 267 273 271 270 272 274 274 270 267 266 266 264 264 267 269 271 262 263 258 263 269 266 271 275 285 278 254 248 250 257 265 274 290 293 305 303 304 276 290 290 284 286 282 280 278 275 276 276 275 276 276 274 271 267
178 170 176 180 182 178 174 174 167 164 155 159 163 169 174 179 185 198 213 227 230 239 223 247 259 268 266 270 278 275 272 269 275 278 276 277 274 272 265 263 264 265 268 269 272 274 274 267 255 259 263 260 258 262 276 278 275 281 269 266 263 263 264 264 267 276 287 298 301 288 272 287 284 276 278 277 275 272 273 273 271 269 268 266 268
174 175 180 179 176 175 174 170 171 166 160 161 163 170 178 181 185 195 211 221 230 235 233 234 252 254 265 268 269 277 277 269 262 267 268 266 262 260 261 261 262 267 265 270 268 266 262 264 264 257 253 257 255 264 270 272 269 270 276 269 267 266 268 265 267 267 270 288 288 291 294 291 284 281 276 276 272 272 269 267 267 269 269 269 268
179 175 176 171 176 172 175 174 174 168 159 161 163 165 173 174 187 197 204 216 215 223 223 229 233 242 254 260 264 268 270 272 265 261 264 258 258 259 260 262 263 266 264 270 270 266 262 258 258 256 259 261 260 259 260 267 269 270 265 272 270 270 266 264 258 260 265 258 273 291 293 292 287 281 281 275 276 272 268 267 269 267 265 264 263
176 178 180 180 179 175 177 177 173 163 161 164 166 167 172 181 190 196 201 211 215 220 224 225 228 233 247 253 259 267 275 277 280 274 261 258 256 259 261 264 270 266 265 267 263 263 263 262 260 257 256 255 257 261 262 262 264 266 265 262 263 262 261 265 267 266 269 274 276 274 282 288 286 287 277 278 277 276 275 273 270 266 264 263 263